OPS 7613 (P/L 3)

导读 | 豆包AI

OPS 7613 (P/L 3)是美国于1969年9月30日发射的军事侦察类卫星,隶属于美国国家侦察局OPS系列保密航天任务。该卫星进入近地轨道运行,轨道周期约103分钟,倾角约70度,主要服务于冷战时期美国战略情报收集需求,是60年代美国太空侦察体系的重要组成部分,任务参数长期处于保密状态。

基本信息
目录编号:
4259
目录名称:
OPS 7613 (P/L 3)
国际标识:
1969-082D
轨道中心:
EARTH
卫星名称:
OPS 7613 (P/L 3)
卫星全名:
--
卫星状态:
在轨 (已飞行20666 天)
发射日期:
1969-09-30 UTC
国别 :
美国 (US)
星等 :
--
轨道信息
数据来源 国际轨道数据
星历时间: 2026-04-30T22:02:10+0800
6小时前
查看轨道信息
半长轴: 7288.884km
偏心率: 0.0022261
轨道倾角: 70.015°
近地点辐角 216.793°
升交点赤经 237.141°
平近点角 154.546°
近地点: 894.521km
远地点: 926.973km
周期: 103.217分钟
每日圈数: 13.951191
详细信息
使用方式:
暂无
2D轨道图
3D轨道图
轨道高度分析图
轨道倾角分析图
轨道综合分析图
查看轨道综合分析图